Date String (YYYY-MM-DD hh:mm:ss) UTC,Instrument flags,absolute air pressure of the measurement (hPa),sample flow rate (lpm),inlet stack bypass flow (lpm),air temperature of the measurement (°C),ambient temperature measured by the external sensor (°C),aerosol sample conditioner tube jacket temperature (°C),OPC LED temperature (°C),internal box temperature (°C),relative humidity of the measurement (%),span deviation,mass concentration of particles derived from Lorenz-Mie calculation of OPC scattering (μg/m³),mass concentration of particles derived from Lorenz-Mie calculation of OPC scattering (μg/m³),mass concentration of particles derived from Lorenz-Mie calculation of OPC scattering (μg/m³)
DateTimeUTC,F1_M11,P_M11,Q1_M11,Q2_M11,T1_M11,T2_M11,T3_M11,T4_M11,T5_M11,U1_M11,ZSPAN_M11,X2_M11,X0_M11,X1_M11
2024-06-01 04:00:00,SystemResetWarning,0829.1,5.00,000.00,030.3,027.2,000.0,039.5,031.2,014.4,0000.0,0002.50,0008.53,0001.65
2024-06-01 04:01:00,SystemResetWarning,0829.1,5.00,000.00,030.3,027.7,000.0,039.3,031.4,014.3,0000.0,0002.49,0009.42,0001.64
2024-06-01 04:02:00,SystemResetWarning,0829.1,5.01,000.00,030.3,028.1,000.0,039.2,031.6,014.0,0000.0,0002.52,0009.53,0001.64
2024-06-01 04:03:00,SystemResetWarning,0829.2,5.00,000.00,030.3,028.4,000.0,039.1,031.8,013.8,0000.0,0002.50,0009.48,0001.64
2024-06-01 04:04:00,SystemResetWarning,0829.1,5.00,000.00,030.3,028.7,000.0,039.1,031.9,013.7,0000.0,0002.48,0008.22,0001.62
2024-06-01 04:05:00,SystemResetWarning,0829.1,5.00,000.00,030.3,029.0,000.0,039.0,031.9,013.7,0000.0,0002.48,0007.55,0001.61
2024-06-01 04:06:00,SystemResetWarning,0829.1,5.00,000.00,030.4,029.1,000.0,039.0,032.0,013.7,0000.0,0002.54,0007.32,0001.62
2024-06-01 04:07:00,SystemResetWarning,0829.1,5.01,000.00,030.4,029.3,000.0,039.0,032.0,013.7,0000.0,0002.56,0007.20,0001.62
2024-06-01 04:08:00,SystemResetWarning,0829.1,5.01,000.00,030.4,029.4,000.0,039.0,032.1,013.7,0000.0,0002.49,0007.24,0001.61
2024-06-01 04:09:00,SystemResetWarning,0829.2,5.00,000.00,030.5,029.6,000.0,038.9,032.1,013.7,0000.0,0002.45,0007.28,0001.61
2024-06-01 04:10:00,SystemResetWarning,0829.2,5.00,000.00,030.5,029.7,000.0,039.0,032.2,013.7,0000.0,0002.46,0007.26,0001.63
2024-06-01 04:11:00,SystemResetWarning,0829.2,5.00,000.00,030.5,029.7,000.0,039.0,032.2,013.7,0000.0,0002.46,0007.28,0001.63
2024-06-01 04:12:00,SystemResetWarning,0829.2,4.99,000.00,030.6,029.8,000.0,039.0,032.3,013.8,0000.0,0002.52,0006.70,0001.64
2024-06-01 04:13:00,SystemResetWarning,0829.2,4.99,000.00,030.6,029.9,000.0,039.0,032.3,013.7,0000.0,0002.53,0006.68,0001.64
2024-06-01 04:14:00,SystemResetWarning,0829.2,5.01,000.00,030.6,029.9,000.0,039.0,032.4,013.7,0000.0,0002.56,0007.28,0001.63
2024-06-01 04:15:00,SystemResetWarning,0829.2,5.00,000.00,030.7,030.0,000.0,039.0,032.4,013.8,0000.0,0002.54,0007.35,0001.64
2024-06-01 04:16:00,SystemResetWarning,0829.2,5.01,000.00,030.7,030.0,000.0,039.0,032.4,013.8,0000.0,0002.54,0007.48,0001.64
2024-06-01 04:17:00,SystemResetWarning,0829.1,5.00,000.00,030.7,030.1,000.0,039.0,032.4,013.7,0000.0,0002.51,0007.94,0001.65
2024-06-01 04:18:00,SystemResetWarning,0829.1,5.01,000.00,030.8,030.1,000.0,039.0,032.5,013.7,0000.0,0002.48,0008.17,0001.65
2024-06-01 04:19:00,SystemResetWarning,0829.1,5.00,000.00,030.8,030.1,000.0,039.1,032.5,013.7,0000.0,0002.46,0007.97,0001.66
2024-06-01 04:20:00,SystemResetWarning,0829.1,5.00,000.00,030.8,030.2,000.0,039.1,032.5,013.7,0000.0,0002.49,0007.97,0001.66
2024-06-01 04:21:00,SystemResetWarning,0829.1,5.00,000.00,030.8,030.2,000.0,039.1,032.6,013.7,0000.0,0002.54,0007.88,0001.65
2024-06-01 04:22:00,SystemResetWarning,0829.1,5.00,000.00,030.9,030.2,000.0,039.1,032.6,013.7,0000.0,0002.55,0007.96,0001.66
2024-06-01 04:23:00,SystemResetWarning,0829.1,5.00,000.00,030.9,030.3,000.0,039.1,032.6,013.7,0000.0,0002.57,0007.75,0001.66
2024-06-01 04:24:00,SystemResetWarning,0829.1,5.00,000.00,030.9,030.3,000.0,039.2,032.6,013.5,0000.0,0002.59,0007.67,0001.67
2024-06-01 04:25:00,SystemResetWarning,0829.1,5.00,000.00,030.9,030.3,000.0,039.2,032.6,013.2,0000.0,0002.59,0007.38,0001.67
2024-06-01 04:26:00,SystemResetWarning,0829.1,5.00,000.00,031.0,030.3,000.0,039.2,032.6,013.0,0000.0,0002.56,0007.33,0001.65
2024-06-01 04:27:00,SystemResetWarning,0829.1,5.00,000.00,031.0,030.4,000.0,039.2,032.7,012.9,0000.0,0002.58,0007.22,0001.65
2024-06-01 04:28:00,SystemResetWarning,0829.1,5.00,000.00,031.0,030.4,000.0,039.2,032.7,012.9,0000.0,0002.58,0006.61,0001.64
2024-06-01 04:29:00,SystemResetWarning,0829.1,5.00,000.00,031.0,030.4,000.0,039.3,032.7,013.3,0000.0,0002.62,0005.93,0001.64
2024-06-01 04:30:00,SystemResetWarning,0829.1,5.00,000.00,031.1,030.4,000.0,039.3,032.8,012.9,0000.0,0002.70,0006.12,0001.66
2024-06-01 04:31:00,SystemResetWarning,0829.1,5.00,000.00,031.1,030.4,000.0,039.3,032.8,013.0,0000.0,0002.69,0006.25,0001.67
2024-06-01 04:32:00,SystemResetWarning,0829.1,5.00,000.00,031.1,030.4,000.0,039.3,032.8,013.0,0000.0,0002.69,0007.00,0001.67
2024-06-01 04:33:00,SystemResetWarning,0829.1,5.00,000.00,031.1,030.4,000.0,039.3,032.8,013.2,0000.0,0002.68,0006.62,0001.67
2024-06-01 04:34:00,SystemResetWarning,0829.1,5.00,000.00,031.1,030.5,000.0,039.4,032.8,012.9,0000.0,0002.60,0006.71,0001.66
2024-06-01 04:35:00,SystemResetWarning,0829.1,5.00,000.00,031.1,030.5,000.0,039.4,032.8,012.8,0000.0,0002.55,0007.48,0001.65
2024-06-01 04:36:00,SystemResetWarning,0829.1,5.00,000.00,031.1,030.5,000.0,039.4,032.8,012.9,0000.0,0002.55,0007.53,0001.65
2024-06-01 04:37:00,SystemResetWarning,0829.1,4.99,000.00,031.1,030.5,000.0,039.4,032.8,012.9,0000.0,0002.53,0007.42,0001.66
2024-06-01 04:38:00,SystemResetWarning,0829.1,5.00,000.00,031.1,030.5,000.0,039.4,032.8,012.9,0000.0,0002.48,0007.34,0001.67
2024-06-01 04:39:00,SystemResetWarning,0829.1,4.99,000.00,031.2,030.5,000.0,039.4,032.8,012.8,0000.0,0002.46,0007.84,0001.67
2024-06-01 04:40:00,SystemResetWarning,0829.2,5.00,000.00,031.2,030.5,000.0,039.4,032.8,012.9,0000.0,0002.52,0007.90,0001.66
2024-06-01 04:41:00,SystemResetWarning,0829.2,5.00,000.00,031.2,030.5,000.0,039.4,032.8,012.9,0000.0,0002.53,0007.98,0001.64
2024-06-01 04:42:00,SystemResetWarning,0829.2,4.99,000.00,031.2,030.5,000.0,039.5,032.9,012.8,0000.0,0002.52,0007.97,0001.65
2024-06-01 04:43:00,SystemResetWarning,0829.3,5.00,000.00,031.2,030.5,000.0,039.5,032.9,012.9,0000.0,0002.43,0007.29,0001.66
2024-06-01 04:44:00,SystemResetWarning,0829.3,5.00,000.00,031.2,030.5,000.0,039.5,032.9,012.9,0000.0,0002.46,0007.39,0001.66
2024-06-01 04:45:00,SystemResetWarning,0829.3,5.01,000.00,031.2,030.5,000.0,039.5,032.9,013.5,0000.0,0002.55,0007.09,0001.67
2024-06-01 04:46:00,SystemResetWarning,0829.4,5.00,000.00,031.3,030.6,000.0,039.5,032.9,016.1,0000.0,0002.62,0006.81,0001.72
2024-06-01 04:47:00,SystemResetWarning,0829.4,5.00,000.00,031.3,030.6,000.0,039.6,033.0,016.7,0000.0,0002.75,0007.81,0001.86
2024-06-01 04:48:00,SystemResetWarning,0829.4,5.00,000.00,031.3,030.6,000.0,039.6,033.0,017.1,0000.0,0003.01,0008.31,0002.04
2024-06-01 04:49:00,SystemResetWarning,0829.4,5.00,000.00,031.3,030.6,000.0,039.6,033.0,016.8,0000.0,0003.20,0010.26,0002.24
2024-06-01 04:50:00,SystemResetWarning,0829.3,5.00,000.00,031.3,030.6,000.0,039.6,033.0,016.7,0000.0,0003.36,0010.62,0002.39
2024-06-01 04:51:00,SystemResetWarning,0829.4,5.00,000.00,031.3,030.6,000.0,039.6,033.0,016.7,0000.0,0003.46,0012.01,0002.57
2024-06-01 04:52:00,SystemResetWarning,0829.4,5.00,000.00,031.3,030.6,000.0,039.6,033.0,017.2,0000.0,0003.55,0012.46,0002.74
2024-06-01 04:53:00,SystemResetWarning,0829.3,4.99,000.00,031.3,030.6,000.0,039.6,033.0,017.6,0000.0,0003.68,0012.90,0002.93
2024-06-01 04:54:00,SystemResetWarning,0829.4,5.00,000.00,031.3,030.6,000.0,039.6,033.0,016.5,0000.0,0003.86,0013.60,0003.11
2024-06-01 04:55:00,SystemResetWarning,0829.4,5.00,000.00,031.3,030.6,000.0,039.7,033.0,017.0,0000.0,0003.95,0013.86,0003.20
2024-06-01 04:56:00,SystemResetWarning,0829.4,5.00,000.00,031.4,030.6,000.0,039.7,033.0,017.8,0000.0,0004.05,0014.71,0003.30
2024-06-01 04:57:00,SystemResetWarning,0829.4,5.01,000.00,031.4,030.6,000.0,039.7,033.0,018.3,0000.0,0004.18,0015.61,0003.42
2024-06-01 04:58:00,SystemResetWarning,0829.4,5.01,000.00,031.4,030.7,000.0,039.7,033.0,018.7,0000.0,0004.26,0015.84,0003.48
2024-06-01 04:59:00,SystemResetWarning,0829.3,5.00,000.00,031.4,030.7,000.0,039.7,033.1,019.3,0000.0,0004.35,0015.87,0003.53
